{"data":{"norad_id":65128,"epoch":"2026-09-21T21:31:40.612512Z","epoch_age_seconds":44394,"freshness":"FRESH","line1":"1 65128U 25170K   26264.89699783  .00000863  00000+0  13425-3 0  9990","line2":"2 65128  49.9792  39.9585 0024555 301.2389  58.6143 14.82420600 61405","mean_motion":14.824206,"eccentricity":0.0024555,"inclination_deg":49.9792,"raan_deg":39.9585,"arg_perigee_deg":301.2389,"mean_anomaly_deg":58.6143,"bstar":0.00013425,"rev_number":6140,"period_min":97.138423467672,"perigee_km":604.50579091437,"apogee_km":638.88196034459,"semimajor_km":6999.8308756295,"source":"CELESTRAK","updated_at":"2026-09-22T09:00:30.147936Z"}}